Vertical_Velocity
0 -1 -1 -1 -1 -1 -1 -0 -0 -1 -1 -1 0 -1 -1 0 0 -1 -1 -0 -0 -1 -1 -1 -1 -1 -2 -2 0 -0 0 0 -0 -2 -4 -2 -2 -1 -0 1 -2 -1 0 -2 -1 0 2
-1 -1 -1 -0 -1 -1 -1 -1 -1 -0 -0 -0 -2 -2 0 -0 -1 -1 -0 0 -1 -1 -1 -1 -1 -2 -3 -3 -2 0 -2 -1 -1 -0 -1 -2 -1 1 1 -1 0 1 1 -1 0 -1 3
-1 -0 -0 -1 -2 -2 -0 0 -1 -1 -1 -1 -1 -0 -0 -1 -1 -1 -1 -1 -1 -0 0 -1 -1 -0 -2 -1 0 -0 -2 -1 -0 -1 -2 -1 -1 -1 1 -2 3 -0 -3 -1 -0 0 1
1 1 -0 -1 -1 -1 -1 -1 -1 -1 -1 -2 -1 -1 -1 -2 -1 -3 -1 1 -1 -0 -1 -1 -1 0 -1 0 -1 1 -1 -1 -4 -1 -1 -2 -0 -0 -1 4 -4 -1 -5 -2 -5 -1 2
-0 0 1 -0 -0 -0 -0 -0 -1 -0 -0 -0 -0 -1 -1 -0 -0 1 -1 1 -1 -2 -1 0 -3 -0 0 2 1 -3 -0 -1 -3 -0 -1 -0 -1 1 -3 -2 -5 -4 -1 -1 -2 1 -1
-0 -0 0 -1 -1 -1 -1 0 0 0 -0 -0 0 -1 -1 -1 -3 -2 -4 -2 -1 -0 -1 0 -1 -1 -1 -1 0 -1 -0 -1 -1 -0 -2 -2 -2 -2 -3 -5 -4 -2 -1 -1 -1 2 -2
0 -1 -0 0 -0 -1 0 1 0 -0 -1 -2 -1 -0 -1 -2 -1 -2 -2 -9 -9 -0 -1 -1 -0 -1 2 3 -3 -2 0 1 -0 -1 -1 1 -9 -1 -1 -0 -1 0 1 0 -2 0 -6
-0 -1 -1 -1 -0 -0 -0 -0 -0 -2 -2 -2 -2 -1 -1 -3 -0 0 1 -10 1 2 -5 0 1 -2 -2 -0 -1 -2 1 0 1 -0 -0 -8 -2 -2 0 -0 -1 -1 -0 -2 -3 -0 -7
-0 -0 -0 -0 -1 -1 -1 -1 -1 -1 -1 -1 -3 -3 -1 -3 -2 -5 -2 -3 -1 -1 -0 -2 1 -1 -1 -0 -0 0 -4 0 1 -1 -0 -2 -3 -0 -0 -1 -3 -0 -1 -1 0 -2 -1
-0 1 0 -1 -1 -1 -0 -1 -1 -2 -2 -2 -1 -1 -3 -3 -6 -2 -3 -2 2 -2 -6 -8 -2 -1 -1 -1 -1 1 -1 -1 -2 1 0 -1 0 -0 -1 -0 -1 0 -2 -0 1 -0 -4
-0 -1 1 -1 -0 0 1 -0 -3 -2 -2 -2 -2 -2 -1 -5 0 -3 2 0 1 0 -10 -12 -4 0 -0 1 1 -2 2 1 0 -1 -8 -13 -0 -1 -0 -2 0 -8 1 -1 -0 1 -1
-1 0 0 0 -1 0 -0 0 -2 -3 -3 -2 -1 -3 -2 1 -2 -1 1 1 -2 -18 -12 -6 -1 -2 -5 1 -1 -2 -0 1 2 0 0 -1 1 -1 -2 -1 -1 -1 -0 -0 -0 -1 -4
-1 -0 -1 -0 -2 -1 -2 0 -0 -2 -3 -2 -3 -3 -2 -1 0 0 2 -0 -14 -11 -9 -6 -2 -0 0 -2 -3 -0 -1 -4 -3 -7 -3 -4 -1 -0 1 -2 -3 -6 -5 -4 -7 -5 -6
-2 -2 -1 -0 -1 -1 -2 2 1 -1 -2 -2 -3 -5 -1 0 -1 0 -0 -9 -9 -1 0 -1 1 -1 0 0 -2 -1 -1 -1 -2 -1 -0 1 -16 -0 -0 -2 -0 -0 -4 -5 -2 -1 -4
-1 -1 -0 0 0 -1 1 1 1 -2 -4 -2 -4 -4 -2 -0 -2 -2 -0 -5 -4 -0 -0 0 -6 -0 -1 -1 1 -0 0 -0 0 -0 -2 -2 -5 -2 0 0 -4 -3 -4 -6 -2 -1 -0
-1 -0 -0 -1 0 -1 -1 -0 0 -3 -2 -2 -3 -10 -1 -1 -0 -3 -6 -2 -1 0 -0 0 0 -0 0 -1 -3 -4 -0 -1 -0 -0 -0 -2 -5 -1 -1 0 -1 -0 -3 -4 -3 -2 -1
-1 -1 -0 -1 -1 -0 -0 -0 0 -1 -3 -2 -4 -5 0 -2 -3 -1 -4 -2 0 0 0 0 0 -1 0 0 1 -1 -2 -2 -0 -0 -0 0 -3 -14 -2 -1 -1 -2 -2 -1 -3 -3 -2
-0 -1 -1 -1 1 -1 -0 -2 -1 -1 -3 -4 -1 -1 -2 -0 -4 1 -1 1 -1 0 -0 -0 -1 0 0 -0 0 0 1 1 1 -0 -0 -2 -2 -0 -7 -1 1 0 -1 -1 -3 -3 -1
0 1 -1 0 -1 -0 -1 -1 -1 -1 -3 -1 -1 -4 -2 -4 -2 -1 -2 -0 0 0 -1 0 -0 0 -0 0 -2 1 -0 -1 0 -0 -1 -2 -3 -3 -14 -3 -3 -1 -1 -0 -1 -2 -2
1 0 -1 0 1 -1 -1 -1 1 0 -2 -3 -1 -5 -1 -1 -1 -1 0 -1 0 -0 -1 0 0 -0 -0 0 -0 -3 -0 -1 -0 -1 -0 -1 -0 -4 -5 -1 0 -0 -0 -0 -2 -0 -2
2 1 -0 0 -0 1 -1 -0 -1 -1 -4 -4 -0 -1 -2 -3 -2 0 1 0 0 -1 0 0 -3 0 -1 1 -1 -1 -1 -0 0 0 1 -3 -0 2 -2 -1 1 0 1 -1 3 -6 -0
1 1 1 0 -2 -1 0 0 1 -1 -1 1 -2 -2 -2 0 1 1 1 -3 -0 -2 -0 -0 1 -1 1 1 -3 -2 2 1 -3 1 0 -0 -4 1 -3 -1 2 1 -1 0 -0 -1 2
0 1 2 2 -0 -2 -1 1 0 -0 -2 -1 1 2 -5 -1 0 1 -3 -3 -1 -1 -4 4 -2 -1 1 -1 1 -1 2 1 -1 -2 -0 0 -1 -1 -5 0 -1 0 -3 -0 -1 -0 1
0 -0 1 1 2 1 -0 -3 5 1 0 1 -2 2 0 -4 2 -4 -0 1 -0 -2 -1 -0 2 -2 -7 3 -5 -1 5 1 5 -2 1 -1 -0 -0 -1 -1 1 -4 0 -1 -2 1 1
-0 1 1 3 1 1 1 1 2 1 2 -1 1 4 -3 -1 -1 1 2 -1 0 -1 -0 -0 -4 -5 4 -6 0 -3 -5 -3 -1 0 1 -0 -1 -1 1 -0 -10 3 0 -0 -0 2 1
0 -1 -0 1 4 1 -0 -1 -1 5 2 5 -4 1 5 -1 -8 -0 0 0 -2 -0 0 -3 2 0 5 -1 -0 -0 -2 -3 -2 -1 -0 -0 -1 -3 2 2 -1 0 1 -0 0 -1 1
-0 1 2 2 2 1 4 2 -3 3 4 4 -3 2 13 0 -10 -3 -7 -4 -0 1 -0 0 0 2 3 0 1 -0 -3 -2 -2 -0 -0 1 1 -1 -1 -0 -6 0 0 -0 -1 -3 2
-1 -2 -1 -1 3 4 2 5 2 -2 4 7 -8 2 10 -0 -9 -5 -0 -4 -0 0 -2 1 -1 5 3 3 1 -3 1 -5 0 -3 -4 -6 -3 -1 2 2 -7 0 -0 -1 -1 4 -1
-0 -2 -1 2 -0 0 3 5 4 2 2 15 6 0 13 9 2 -3 -3 2 -0 2 6 2 0 -4 -3 0 2 1 1 1 -2 -2 1 -3 -7 -6 -2 -5 0 1 -2 1 1 -2 1
Height
1587 1586 1586 1585 1584 1583 1582 1581 1580 1578 1576 1574 1571 1569 1566 1563 1559 1556 1552 1549 1546 1543 1540 1539 1538 1538 1539 1540 1542 1542 1540 1539 1537 1536 1535 1534 1533 1532 1534 1532 1530 1528 1530 1530 1530 1530 1530
1589 1588 1588 1587 1586 1585 1584 1583 1581 1579 1577 1575 1572 1570 1566 1563 1559 1554 1551 1547 1544 1541 1539 1537 1536 1537 1539 1541 1541 1541 1540 1539 1536 1535 1535 1535 1534 1533 1533 1532 1532 1528 1531 1529 1531 1529 1528
1591 1590 1590 1589 1588 1587 1585 1584 1582 1581 1579 1576 1573 1570 1567 1563 1558 1553 1550 1546 1543 1540 1538 1537 1536 1537 1538 1542 1541 1541 1539 1538 1537 1535 1535 1535 1534 1534 1533 1532 1530 1528 1531 1530 1530 1527 1527
1592 1591 1591 1590 1589 1588 1587 1585 1583 1582 1579 1577 1574 1571 1567 1563 1558 1554 1549 1545 1542 1541 1539 1537 1536 1537 1539 1540 1540 1540 1539 1537 1535 1535 1535 1535 1534 1533 1533 1531 1530 1530 1533 1540 1530 1526 1529
1593 1592 1592 1591 1590 1589 1588 1586 1585 1583 1580 1578 1574 1571 1567 1563 1558 1554 1550 1546 1543 1542 1539 1539 1539 1538 1541 1541 1541 1539 1538 1536 1535 1535 1535 1535 1535 1536 1534 1536 1543 1541 1545 1538 1532 1527 1529
1594 1593 1592 1592 1590 1589 1588 1587 1585 1583 1580 1577 1574 1571 1567 1562 1558 1555 1550 1546 1543 1542 1540 1540 1541 1543 1543 1543 1540 1539 1537 1536 1535 1534 1536 1536 1537 1540 1541 1545 1557 1548 1544 1537 1535 1531 1533
1595 1594 1593 1592 1592 1591 1590 1588 1586 1584 1581 1578 1574 1570 1566 1562 1558 1554 1550 1545 1546 1544 1543 1544 1544 1544 1542 1542 1540 1539 1538 1536 1535 1535 1537 1536 1545 1547 1541 1539 1539 1540 1541 1539 1530 1527 1533
1596 1595 1594 1593 1592 1591 1590 1589 1586 1584 1581 1578 1575 1571 1567 1563 1558 1555 1551 1548 1551 1552 1546 1544 1544 1543 1543 1542 1540 1539 1539 1538 1536 1537 1534 1540 1544 1539 1536 1535 1537 1535 1535 1539 1530 1525 1531
1597 1596 1595 1594 1593 1592 1590 1589 1587 1584 1581 1578 1575 1571 1567 1563 1558 1554 1551 1551 1550 1549 1549 1547 1545 1544 1543 1542 1540 1540 1540 1538 1537 1536 1536 1539 1538 1535 1536 1538 1539 1541 1540 1541 1539 1529 1525
1596 1596 1595 1594 1593 1591 1590 1588 1587 1584 1581 1578 1575 1571 1567 1564 1561 1556 1553 1551 1550 1548 1554 1551 1546 1546 1544 1541 1541 1540 1539 1540 1537 1537 1534 1535 1534 1534 1535 1536 1538 1539 1535 1535 1536 1535 1540
1594 1594 1593 1592 1591 1590 1589 1587 1586 1584 1581 1578 1575 1571 1568 1562 1561 1557 1556 1551 1549 1549 1580 1551 1548 1547 1545 1545 1544 1541 1539 1538 1539 1538 1539 1538 1534 1534 1536 1534 1534 1535 1529 1532 1532 1537 1534
1591 1591 1590 1590 1589 1588 1587 1585 1584 1582 1580 1577 1574 1571 1567 1565 1560 1557 1553 1550 1550 1560 1584 1555 1549 1547 1546 1542 1541 1539 1538 1537 1537 1538 1536 1534 1533 1534 1533 1530 1530 1529 1527 1527 1531 1538 1552
1587 1587 1587 1586 1585 1585 1584 1582 1581 1579 1578 1576 1573 1571 1567 1564 1561 1557 1553 1550 1561 1575 1554 1557 1555 1550 1550 1547 1543 1541 1541 1542 1546 1550 1546 1538 1535 1534 1534 1534 1529 1531 1536 1549 1548 1553 1547
1582 1582 1582 1582 1582 1581 1581 1580 1578 1577 1575 1574 1572 1569 1567 1563 1560 1557 1554 1552 1567 1557 1558 1554 1552 1550 1551 1548 1544 1542 1543 1549 1545 1546 1554 1556 1552 1536 1535 1537 1538 1536 1538 1553 1544 1548 1545
1578 1578 1578 1578 1578 1578 1578 1577 1576 1575 1573 1571 1570 1567 1565 1563 1560 1558 1556 1570 1566 1560 1559 1558 1552 1551 1550 1549 1551 1547 1545 1549 1549 1548 1553 1556 1549 1539 1536 1535 1536 1535 1541 1537 1543 1541 1545
1573 1574 1574 1574 1573 1573 1574 1574 1573 1572 1570 1569 1567 1566 1563 1562 1560 1558 1559 1562 1559 1558 1558 1558 1561 1554 1557 1553 1553 1554 1548 1548 1548 1547 1547 1549 1556 1536 1535 1536 1534 1535 1534 1540 1546 1537 1535
1569 1569 1570 1570 1570 1570 1570 1569 1569 1568 1568 1567 1567 1564 1562 1561 1560 1558 1564 1562 1558 1559 1559 1559 1558 1558 1556 1558 1553 1553 1548 1548 1547 1548 1548 1548 1552 1547 1536 1535 1535 1537 1537 1536 1536 1543 1538
1566 1566 1566 1566 1566 1566 1566 1565 1565 1565 1566 1566 1566 1566 1561 1561 1562 1560 1563 1559 1559 1559 1560 1560 1560 1559 1558 1556 1556 1553 1549 1548 1548 1548 1549 1548 1552 1555 1544 1536 1533 1533 1533 1535 1547 1538 1543
1563 1563 1563 1563 1563 1563 1562 1562 1562 1562 1563 1565 1566 1564 1561 1561 1564 1562 1560 1560 1560 1559 1560 1560 1559 1559 1557 1558 1560 1552 1548 1548 1547 1548 1548 1547 1552 1561 1542 1538 1535 1535 1533 1533 1537 1543 1543
1559 1559 1559 1559 1559 1559 1559 1559 1560 1560 1561 1564 1566 1565 1562 1560 1561 1563 1561 1559 1558 1558 1558 1559 1558 1557 1558 1557 1556 1553 1548 1546 1547 1547 1547 1548 1552 1549 1553 1543 1542 1539 1533 1532 1534 1547 1539
1556 1556 1556 1556 1556 1556 1556 1556 1557 1558 1560 1563 1563 1564 1564 1563 1560 1561 1561 1561 1558 1559 1557 1557 1557 1558 1560 1560 1555 1554 1550 1548 1548 1548 1548 1549 1553 1548 1542 1538 1540 1538 1532 1531 1534 1528 1531
1552 1552 1552 1552 1552 1553 1553 1554 1555 1556 1557 1560 1561 1562 1564 1561 1559 1561 1561 1559 1558 1555 1556 1555 1557 1556 1557 1559 1553 1554 1550 1549 1548 1549 1549 1548 1550 1542 1543 1534 1531 1532 1524 1522 1519 1518 1519
1548 1549 1549 1549 1549 1549 1550 1551 1552 1553 1555 1557 1558 1559 1561 1560 1558 1561 1558 1556 1555 1555 1553 1552 1552 1555 1556 1554 1552 1549 1547 1545 1545 1545 1548 1547 1548 1549 1540 1531 1529 1525 1513 1517 1516 1515 1514
1544 1544 1544 1544 1544 1545 1546 1547 1549 1550 1551 1553 1554 1557 1557 1555 1554 1555 1554 1554 1554 1554 1555 1551 1550 1553 1551 1549 1549 1545 1540 1538 1537 1536 1539 1543 1545 1550 1544 1539 1537 1514 1519 1519 1520 1522 1522
1538 1539 1539 1539 1539 1540 1541 1543 1544 1546 1547 1547 1549 1552 1552 1550 1549 1549 1549 1550 1550 1551 1552 1549 1547 1547 1548 1548 1548 1549 1541 1536 1534 1536 1535 1537 1543 1547 1542 1540 1519 1515 1521 1520 1517 1525 1527
1530 1532 1533 1533 1533 1534 1535 1537 1539 1541 1544 1543 1544 1547 1546 1546 1542 1543 1546 1545 1547 1547 1548 1544 1543 1544 1547 1549 1551 1551 1546 1533 1533 1537 1536 1536 1537 1543 1539 1532 1521 1517 1522 1522 1521 1520 1527
1522 1523 1524 1526 1527 1527 1528 1530 1532 1535 1537 1538 1538 1540 1540 1538 1536 1538 1541 1541 1540 1542 1542 1542 1542 1543 1543 1548 1547 1545 1541 1528 1531 1531 1538 1539 1543 1536 1533 1526 1518 1520 1520 1521 1519 1522 1528
1513 1514 1516 1517 1519 1520 1521 1523 1525 1528 1531 1530 1531 1534 1533 1529 1528 1530 1532 1533 1534 1534 1536 1538 1541 1539 1542 1544 1542 1539 1536 1530 1526 1522 1526 1526 1531 1533 1530 1526 1519 1521 1522 1522 1525 1526 1527
1504 1506 1507 1509 1510 1512 1514 1516 1517 1520 1524 1524 1522 1526 1527 1524 1521 1521 1521 1523 1526 1526 1528 1530 1528 1528 1529 1534 1535 1533 1528 1526 1524 1520 1514 1519 1512 1518 1518 1514 1522 1521 1520 1522 1523 1524 1527